EW8332 Weather Reports


time (UTC)temp
C
wind
direction
speed
KPH
gust
KPH
rain 1hr
cm
rain 24hr
cm
rain mn
cm
humidity
%
barometer
mb
20260506160204 25 29 0.0 4.8 0.00 0.00 0.00 86 1012.8
20260506153703 24 82 1.6 3.2 0.00 0.00 0.00 89 1012.6
20260506153204 24 53 0.0 4.8 0.00 0.00 0.00 89 1012.5
20260506150704 23 230 1.6 3.2 0.00 0.00 0.00 90 1011.5
20260506150204 23 111 0.0 4.8 0.00 0.00 0.00 90 1011.5
20260506143704 23 70 0.0 4.8 0.00 0.00 0.00 91 1011.3
20260506143203 23 153 1.6 4.8 0.00 0.00 0.00 91 1011.2
20260506140704 23 24 0.0 0.0 0.00 0.00 0.00 92 1011.4
20260506140204 23 24 0.0 9.7 0.00 0.00 0.00 92 1011.3
20260506130704 23 76 1.6 3.2 0.00 0.00 0.00 92 1010.1
20260506130204 23 80 1.6 4.8 0.00 0.00 0.00 92 1010.1
20260506123703 23 138 1.6 3.2 0.00 0.00 0.00 92 1009.9
20260506123204 23 141 1.6 3.2 0.00 0.00 0.00 92 1010.0
20260506120704 23 170 0.0 0.0 0.00 0.00 0.00 92 1010.0
20260506120204 23 170 0.0 3.2 0.00 0.00 0.00 92 1009.9
20260506113704 23 170 0.0 3.2 0.00 0.00 0.00 92 1009.8
20260506110704 23 168 3.2 4.8 0.00 0.00 0.00 91 1009.7
20260506110204 23 173 3.2 8.0 0.00 0.00 0.00 91 1009.6
20260506103703 23 170 3.2 11.3 0.00 0.00 0.00 91 1009.5
20260506100704 23 169 4.8 9.7 0.00 0.00 0.00 91 1009.4
20260506100204 23 172 4.8 11.3 0.00 0.00 0.00 90 1009.4
20260506093704 23 162 4.8 11.3 0.00 0.00 0.00 91 1009.2
20260506093204 23 185 6.4 16.1 0.00 0.00 0.00 90 1009.0
20260506090704 23 160 4.8 11.3 0.00 0.00 0.00 90 1009.1
20260506083704 23 169 4.8 11.3 0.00 0.00 0.00 90 1009.0
20260506070704 23 178 6.4 19.3 0.00 0.00 0.00 90 1009.5
20260506070203 23 161 8.0 22.5 0.00 0.00 0.00 90 1009.5
20260506060704 23 163 8.0 14.5 0.00 0.00 0.00 89 1009.7
20260506060204 23 168 4.8 19.3 0.00 0.00 0.00 89 1009.7
20260506050705 23 153 6.4 12.9 0.00 0.00 0.00 88 1009.8
20260506043704 24 160 4.8 14.5 0.00 0.00 0.00 89 1009.7
20260506043203 24 166 8.0 19.3 0.00 0.00 0.00 89 1009.7
20260506040704 24 156 8.0 19.3 0.00 0.00 0.00 88 1009.4
20260506040204 24 158 6.4 14.5 0.00 0.00 0.00 88 1009.3
20260506033204 24 150 3.2 11.3 0.00 0.00 0.00 89 1009.0
20260506030704 24 128 3.2 8.0 0.00 0.00 0.00 88 1008.6
20260506030204 24 144 3.2 8.0 0.00 0.00 0.00 88 1008.5
20260506023704 24 150 3.2 4.8 0.00 0.00 0.00 86 1008.3
20260506023204 24 136 3.2 9.7 0.00 0.00 0.00 85 1008.3
20260506020204 25 150 1.6 4.8 0.00 0.00 0.00 84 1007.6
20260506013704 25 155 1.6 4.8 0.00 0.00 0.00 82 1007.3
20260506013204 25 136 1.6 4.8 0.00 0.00 0.00 82 1007.3
20260506010703 26 148 1.6 3.2 0.00 0.00 0.00 79 1007.3
20260506010204 26 148 0.0 8.0 0.00 0.00 0.00 78 1007.3
20260506003704 27 143 4.8 11.3 0.00 0.00 0.00 75 1007.2
20260506003204 27 148 3.2 12.9 0.00 0.00 0.00 75 1007.1
20260506000704 27 143 3.2 11.3 0.00 0.00 0.00 74 1007.0
20260505233703 27 161 4.8 9.7 0.00 0.00 0.00 73 1006.9
20260505233204 27 146 3.2 12.9 0.00 0.00 0.00 72 1006.9
20260505230703 28 174 8.0 16.1 0.00 0.00 0.00 70 1006.9
20260505223703 28 189 4.8 12.9 0.00 0.00 0.00 71 1006.7
20260505223203 28 158 6.4 16.1 0.00 0.00 0.00 71 1006.7
20260505220205 28 144 8.0 19.3 0.00 0.00 0.00 70 1006.8
20260505213204 28 153 8.0 19.3 0.00 0.00 0.00 69 1007.2
20260505210704 28 190 6.4 19.3 0.00 0.00 0.00 69 1007.5
20260505210203 28 181 8.0 16.1 0.00 0.00 0.00 68 1007.7
20260505203704 28 154 8.0 20.9 0.00 0.00 0.00 70 1008.0
20260505203203 28 159 4.8 19.3 0.00 0.00 0.00 70 1008.0
20260505200704 27 179 4.8 12.9 0.00 0.00 0.00 72 1008.4
20260505200204 28 169 11.3 19.3 0.00 0.00 0.00 70 1008.4
20260505193703 27 177 8.0 14.5 0.00 0.00 0.00 73 1008.7
20260505193203 27 194 8.0 19.3 0.00 0.00 0.00 73 1008.8
20260505190704 27 171 8.0 16.1 0.00 0.00 0.00 74 1009.0
20260505190204 27 152 8.0 20.9 0.00 0.00 0.00 74 1009.0
20260505183703 27 163 8.0 11.3 0.00 0.00 0.00 76 1009.2
20260505183203 26 189 6.4 14.5 0.00 0.00 0.00 76 1009.3
20260505180703 25 176 8.0 14.5 0.00 0.00 0.00 79 1009.5
20260505173704 24 225 8.0 14.5 0.00 0.00 0.00 82 1010.0
20260505173205 24 173 6.4 14.5 0.00 0.00 0.00 82 1009.9
20260505170704 23 182 4.8 14.5 0.00 0.00 0.00 86 1010.0
20260505170203 23 189 8.0 19.3 0.00 0.00 0.00 87 1010.0
20260505163203 22 198 6.4 19.3 0.00 0.00 0.00 88 1010.2
20260505160704 22 177 4.8 12.9 0.00 0.00 0.00 89 1009.9